COSMOS 2491 DEB, 57568

Orbit data source: Space-Track

COSMOS 2491 DEB, 57568 is space debris in LEO originally from a launch on Wed, 25 Dec 2013 UTC launched from the Plesetsk Missile And Space Complex (PKMTR). Debris objects in space refer to the collection of defunct objects orbiting the Earth. Examples of debris include non-operational satellites, rocket bodies, and fragments generated from explosions, collisions, or faulty payload assembly.

Loading next visibility...
Identifier
57568, 2013-076BF
Orbit
LEO
Country
Flag of CISCIS
Related business
Manufacturer
TsNIIKhM
Mission
Spacecraft
Bus & Motor
Unknown
Mass
Unknown
Launch date (UTC)
2013-12-25 (12 years ago)
Launch vehicle
Unknown
Launch site
Plesetsk Missile And Space Complex (PKMTR)
Object type
Payload
Rocket body
Debris
Shape & HBR
Unknown shape, 0.1 m
Radar Cross Section
Small (<0.1 m²)

Expand to show TLE details & history
Last TLE update: 2 weeks ago

TLE from 2 weeks ago
0 COSMOS 2491 DEB
1 57568U 13076BF  25273.27002729  .00003426  00000-0  17583-1 0  9996
2 57568  82.4593 287.5994 0134165  89.5314 272.1150 12.65784963110403
Epoch: 2025-09-30T06:28Z
TLE epoch observation values (Epoch: 2025-09-30T06:28:50.357Z)
Latitude
-0.0001°
Longitude
-178.87224°
Altitude
1,399.438 km
Speed
7.161 km/s
True Right ascension
19h 10m 23s
True Declination
0° 00' 00"
Sunlit
Object was in daylight at epoch
Visualization orbit readout
Latitude
Unknown
Longitude
Unknown
Altitude
Unknown
Speed
Unknown
Apparent Right ascension
Unknown
Apparent Declination
Unknown
Sunlit
N/A
Visualization observer readout
Local Sidereal Time
19:03:39
Azimuth
Unknown
Elevation
Unknown
Doppler factor
Unknown
Orbital elements
Apogee altitude
1,500.785 km
Perigee altitude
1,292.169 km
Semi-major axis
7,774.614 km
Eccentricity
0.01342
Inclination
82.4593°
RAAN
287.5994°
Arg. of periapsis
89.5314°
True anomaly
270.57786°
Mean anomaly
272.115°
Eccentric anomaly
271.3465°
Mean motion
3.1661 °/min
Orbital period
113.7 mins
BSTAR
0.017583
Loading maneuver chart data...
Computing Atmospheric mass density...
Loading historical data...
Loading historical data...
Loading historical data...
Loading historical data...
Loading historical data...
Loading historical data...
Loading historical data...

Documentation

Showing up to 5 results
|